Previsão horária em Plettenberg Bay

Hoje, 8 Março, Segunda-feira

Tempo Temperatura Precipitação Vento Pressão Humidade
00:00 +19°C° 0 mm 3 m/s 752 mmHg 93%
01:00 +19°C° 0 mm 3 m/s 751 mmHg 93%
02:00 +18°C° 0 mm 3 m/s 751 mmHg 93%
03:00 +18°C° 0 mm 3 m/s 751 mmHg 93%
04:00 +18°C° 0 mm 3 m/s 750 mmHg 93%
05:00 +18°C° 0 mm 3 m/s 750 mmHg 93%
06:00 +18°C° 0.3 mm 3 m/s 750 mmHg 94%
07:00 +18°C° 0.3 mm 4 m/s 751 mmHg 94%
08:00 +18°C° 0.3 mm 4 m/s 751 mmHg 94%
09:00 +18°C° 0.2 mm 4 m/s 751 mmHg 91%
10:00 +18°C° 0.2 mm 4 m/s 751 mmHg 89%
11:00 +18°C° 0.2 mm 3 m/s 751 mmHg 86%
12:00 +19°C° 0 mm 3 m/s 751 mmHg 81%
13:00 +20°C° 0 mm 4 m/s 750 mmHg 77%
14:00 +20°C° 0 mm 4 m/s 750 mmHg 72%
15:00 +20°C° 0 mm 3 m/s 750 mmHg 73%
16:00 +20°C° 0 mm 3 m/s 750 mmHg 73%
17:00 +19°C° 0 mm 3 m/s 749 mmHg 73%
18:00 +19°C° 0 mm 3 m/s 749 mmHg 77%
19:00 +18°C° 0 mm 2 m/s 749 mmHg 80%
20:00 +17°C° 0 mm 2 m/s 750 mmHg 83%
21:00 +18°C° 0 mm 1 m/s 750 mmHg 84%
22:00 +18°C° 0 mm 1 m/s 750 mmHg 84%
23:00 +18°C° 0 mm 1 m/s 751 mmHg 85%

Amanhã, 9 Março, Terça-feira

Tempo Temperatura Precipitação Vento Pressão Humidade
00:00 +18°C° 0 mm 1 m/s 750 mmHg 86%
01:00 +18°C° 0 mm 1 m/s 750 mmHg 86%
02:00 +18°C° 0 mm 1 m/s 750 mmHg 87%
03:00 +18°C° 0 mm 1 m/s 750 mmHg 86%
04:00 +18°C° 0 mm 1 m/s 750 mmHg 86%
05:00 +18°C° 0 mm 1 m/s 750 mmHg 85%
06:00 +18°C° 0 mm 1 m/s 749 mmHg 82%
07:00 +19°C° 0 mm 1 m/s 749 mmHg 78%
08:00 +20°C° 0 mm 1 m/s 749 mmHg 74%
09:00 +21°C° 0 mm 1 m/s 749 mmHg 67%
10:00 +23°C° 0 mm 1 m/s 748 mmHg 61%
11:00 +25°C° 0 mm 2 m/s 748 mmHg 54%
12:00 +25°C° 0 mm 2 m/s 747 mmHg 53%
13:00 +26°C° 0 mm 3 m/s 746 mmHg 51%
14:00 +26°C° 0 mm 3 m/s 745 mmHg 50%
15:00 +26°C° 0 mm 3 m/s 745 mmHg 51%
16:00 +26°C° 0 mm 2 m/s 745 mmHg 52%
17:00 +26°C° 0 mm 2 m/s 745 mmHg 53%
18:00 +23°C° 0 mm 1 m/s 745 mmHg 64%
19:00 +21°C° 0 mm 1 m/s 746 mmHg 74%
20:00 +19°C° 0 mm 1 m/s 746 mmHg 85%
21:00 +20°C° 0 mm 1 m/s 746 mmHg 79%
22:00 +20°C° 0 mm 1 m/s 746 mmHg 74%
23:00 +20°C° 0 mm 2 m/s 746 mmHg 68%

Depois de amanhã, 10 Março, Quarta-feira

Tempo Temperatura Precipitação Vento Pressão Humidade
00:00 +20°C° 0 mm 2 m/s 746 mmHg 62%
01:00 +20°C° 0 mm 2 m/s 746 mmHg 56%
02:00 +20°C° 0 mm 2 m/s 746 mmHg 51%
03:00 +20°C° 0 mm 2 m/s 746 mmHg 51%
04:00 +21°C° 0 mm 1 m/s 746 mmHg 51%
05:00 +21°C° 0 mm 1 m/s 746 mmHg 52%
06:00 +22°C° 0 mm 1 m/s 746 mmHg 53%
07:00 +21°C° 0 mm 2 m/s 747 mmHg 54%
08:00 +22°C° 0 mm 3 m/s 747 mmHg 55%
09:00 +24°C° 0 mm 2 m/s 747 mmHg 53%
10:00 +26°C° 0 mm 2 m/s 747 mmHg 50%
11:00 +28°C° 0 mm 2 m/s 747 mmHg 48%
12:00 +29°C° 0 mm 3 m/s 747 mmHg 46%
13:00 +30°C° 0 mm 3 m/s 746 mmHg 44%
14:00 +32°C° 0 mm 4 m/s 746 mmHg 42%
15:00 +28°C° 0.1 mm 3 m/s 746 mmHg 54%
16:00 +26°C° 0.1 mm 3 m/s 746 mmHg 66%
17:00 +22°C° 0.1 mm 3 m/s 746 mmHg 77%
18:00 +21°C° 0.7 mm 3 m/s 747 mmHg 82%
19:00 +21°C° 0.7 mm 2 m/s 747 mmHg 87%
20:00 +20°C° 0.7 mm 2 m/s 748 mmHg 91%
21:00 +20°C° 0.5 mm 2 m/s 748 mmHg 91%
22:00 +20°C° 0.5 mm 2 m/s 749 mmHg 92%
23:00 +21°C° 0.5 mm 2 m/s 749 mmHg 92%

11 Março, Quinta-feira

Tempo Temperatura Precipitação Vento Pressão Humidade
00:00 +20°C° 0.9 mm 2 m/s 749 mmHg 93%
01:00 +20°C° 0.9 mm 3 m/s 749 mmHg 95%
02:00 +20°C° 0.9 mm 4 m/s 749 mmHg 96%
03:00 +20°C° 0.4 mm 3 m/s 749 mmHg 96%
04:00 +20°C° 0.4 mm 3 m/s 750 mmHg 95%
05:00 +20°C° 0.4 mm 3 m/s 750 mmHg 95%
06:00 +20°C° 0.5 mm 3 m/s 750 mmHg 95%
07:00 +20°C° 0.5 mm 3 m/s 751 mmHg 94%
08:00 +20°C° 0.5 mm 3 m/s 751 mmHg 93%
09:00 +20°C° 0.4 mm 2 m/s 752 mmHg 92%
10:00 +21°C° 0.4 mm 2 m/s 752 mmHg 91%
11:00 +22°C° 0.4 mm 1 m/s 752 mmHg 89%
12:00 +23°C° 0.1 mm 2 m/s 752 mmHg 82%
13:00 +24°C° 0.1 mm 2 m/s 752 mmHg 74%
14:00 +25°C° 0.1 mm 2 m/s 752 mmHg 66%
15:00 +25°C° 0 mm 3 m/s 752 mmHg 68%
16:00 +24°C° 0 mm 3 m/s 752 mmHg 69%
17:00 +23°C° 0 mm 4 m/s 751 mmHg 71%
18:00 +22°C° 0 mm 3 m/s 752 mmHg 76%
19:00 +21°C° 0 mm 3 m/s 752 mmHg 82%
20:00 +20°C° 0 mm 3 m/s 752 mmHg 87%
21:00 +20°C° 0.3 mm 3 m/s 752 mmHg 89%
22:00 +20°C° 0.3 mm 3 m/s 753 mmHg 91%
23:00 +20°C° 0.3 mm 3 m/s 753 mmHg 93%

12 Março, Sexta-feira

Tempo Temperatura Precipitação Vento Pressão Humidade
00:00 +20°C° 0.2 mm 2 m/s 752 mmHg 93%
01:00 +20°C° 0.2 mm 2 m/s 752 mmHg 92%
02:00 +20°C° 0.2 mm 2 m/s 752 mmHg 92%
03:00 +20°C° 0 mm 2 m/s 752 mmHg 91%
04:00 +20°C° 0 mm 2 m/s 751 mmHg 90%
05:00 +20°C° 0 mm 2 m/s 751 mmHg 89%
06:00 +20°C° 0 mm 2 m/s 751 mmHg 86%
07:00 +21°C° 0 mm 2 m/s 751 mmHg 82%
08:00 +23°C° 0 mm 2 m/s 751 mmHg 79%
09:00 +26°C° 0 mm 2 m/s 751 mmHg 67%
10:00 +29°C° 0 mm 2 m/s 750 mmHg 54%
11:00 +32°C° 0 mm 2 m/s 750 mmHg 42%
12:00 +32°C° 0 mm 2 m/s 750 mmHg 41%
13:00 +34°C° 0 mm 3 m/s 749 mmHg 40%
14:00 +34°C° 0 mm 3 m/s 749 mmHg 39%
15:00 +33°C° 0 mm 3 m/s 748 mmHg 44%
16:00 +31°C° 0 mm 3 m/s 748 mmHg 48%
17:00 +30°C° 0 mm 4 m/s 748 mmHg 53%
18:00 +28°C° 0 mm 3 m/s 748 mmHg 60%
19:00 +27°C° 0 mm 3 m/s 748 mmHg 68%
20:00 +25°C° 0 mm 3 m/s 748 mmHg 75%
21:00 +25°C° 0 mm 2 m/s 749 mmHg 72%
22:00 +25°C° 0 mm 2 m/s 749 mmHg 69%
23:00 +26°C° 0 mm 2 m/s 749 mmHg 66%

13 Março, Sábado

Tempo Temperatura Precipitação Vento Pressão Humidade
00:00 +25°C° 0 mm 2 m/s 749 mmHg 68%
01:00 +25°C° 0 mm 3 m/s 749 mmHg 71%
02:00 +23°C° 0 mm 4 m/s 749 mmHg 74%
03:00 +23°C° 0 mm 4 m/s 749 mmHg 76%
04:00 +22°C° 0 mm 4 m/s 749 mmHg 78%
05:00 +22°C° 0 mm 4 m/s 749 mmHg 80%
06:00 +23°C° 0 mm 4 m/s 749 mmHg 74%
07:00 +25°C° 0 mm 3 m/s 749 mmHg 68%
08:00 +27°C° 0 mm 3 m/s 749 mmHg 63%
09:00 +29°C° 0 mm 3 m/s 749 mmHg 56%
10:00 +32°C° 0 mm 4 m/s 749 mmHg 49%
11:00 +34°C° 0 mm 4 m/s 749 mmHg 42%
12:00 +34°C° 0 mm 4 m/s 748 mmHg 41%
13:00 +35°C° 0 mm 4 m/s 748 mmHg 41%
14:00 +35°C° 0 mm 3 m/s 748 mmHg 41%
15:00 +33°C° 0 mm 3 m/s 748 mmHg 46%
16:00 +31°C° 0 mm 3 m/s 748 mmHg 51%
17:00 +29°C° 0 mm 2 m/s 748 mmHg 55%
18:00 +27°C° 0 mm 2 m/s 748 mmHg 65%
19:00 +25°C° 0 mm 2 m/s 749 mmHg 74%
20:00 +23°C° 0 mm 2 m/s 750 mmHg 84%
21:00 +23°C° 0 mm 2 m/s 750 mmHg 83%
22:00 +23°C° 0 mm 2 m/s 750 mmHg 82%
23:00 +23°C° 0 mm 2 m/s 751 mmHg 82%
Mostrar mais

Necessitamos do seu Consentimento

A Meteoprog e os seus Fornecedores de Serviços podem armazenar e aceder a dados pessoais como cookies, identificadores do dispositivo ou outras tecnologias semelhantes existentes no seu dispositivo e processar estes dados para personalizar conteúdos e anúncios, assim como funcionalidades nas redes sociais e análise de tráfego.

  • Armazenar e/ou aceder a informações no seu dispositivo

    Os cookies, identificadores do dispositivo ou outras informações podem ser armazenados ou acedidos no seu dispositivo, para os fins acima indicados.

  • Anúncios e conteúdos personalizados, medição de anúncios e conteúdos, dados sobre o público-alvo e desenvolvimento de produtos

    Os anúncios e os conteúdos podem ser personalizados com base num perfil. Podem ser adicionados dados adicionais para uma maior personalização dos anúncios e dos conteúdos. A eficácia dos anúncios e dos conteúdos pode ser medida. Podem ser obtidas informações sobre o público que visualizou os anúncios e os conteúdos. Estes dados podem ser usados para desenvolver ou melhorar sistemas, softwares ou a experiência do utilizador.

Ao clicar em "Eu concordo”, permitirá o uso de cookies, identificadores do dispositivo e web beacons mencionados ou outras tecnologias semelhantes. As configurações do navegador do seu dispositivo podem ser alteradas.

Para certos fins, podem ser invocados interesses legítimos ao invés de consentimento. Pode ler mais informação sobre este assunto na nossa Política de Privacidade e Cookies.